W7KKE-3 Weather Reports


time (UTC)temp
C
wind
direction
speed
KPH
gust
KPH
rain 1hr
cm
rain 24hr
cm
rain mn
cm
humidity
%
barometer
mb
20260905045326 13 110 4.8 8.0 0.00 1.57 1.09 91 1010.8
20260905044825 13 102 6.4 6.4 0.00 1.57 1.09 91 1010.9
20260905044326 14 107 3.2 4.8 0.00 1.57 1.09 91 1010.9
20260905043825 14 0 3.2 3.2 0.00 1.57 1.09 91 1010.9
20260905043325 14 0 0.0 1.6 0.00 1.57 1.09 91 1010.9
20260905042825 14 0 0.0 1.6 0.03 1.57 1.09 90 1010.8
20260905042325 14 71 0.0 1.6 0.03 1.57 1.09 90 1010.8
20260905041825 14 60 1.6 3.2 0.03 1.57 1.09 90 1010.8
20260905041326 14 63 0.0 3.2 0.03 1.57 1.09 90 1010.7
20260905040825 14 93 0.0 3.2 0.03 1.57 1.09 90 1010.5
20260905040325 14 0 3.2 3.2 0.03 1.57 1.09 90 1010.4
20260905035825 14 99 0.0 3.2 0.03 1.63 1.09 90 1010.5
20260905035325 14 102 0.0 3.2 0.03 1.63 1.09 90 1010.5
20260905034825 15 0 3.2 3.2 0.03 1.63 1.09 90 1010.4
20260905034326 15 0 0.0 0.0 0.03 1.63 1.09 90 1010.3
20260905033825 15 0 0.0 3.2 0.03 1.63 1.09 90 1010.2
20260905033325 15 0 0.0 3.2 0.03 1.63 1.09 90 1010.2
20260905032825 15 109 0.0 3.2 0.00 1.63 1.09 90 1010.1
20260905032325 15 0 1.6 1.6 0.00 1.63 1.09 90 1010.0
20260905031825 15 0 0.0 0.0 0.00 1.63 1.07 90 1010.1
20260905031326 15 0 0.0 0.0 0.00 1.63 1.07 90 1010.0
20260905030825 15 0 0.0 0.0 0.03 1.63 1.07 90 1010.0
20260905030325 15 0 0.0 0.0 0.03 1.63 1.07 90 1010.0
20260905025826 15 0 0.0 1.6 0.03 1.80 1.07 90 1010.0
20260905025325 15 121 0.0 1.6 0.03 1.80 1.07 90 1010.0
20260905024825 15 140 0.0 1.6 0.03 1.80 1.07 90 1009.9
20260905024326 16 0 0.0 0.0 0.03 1.80 1.07 90 1010.0
20260905023825 16 0 0.0 0.0 0.03 1.80 1.07 90 1010.1
20260905023325 16 92 0.0 1.6 0.03 1.80 1.07 90 1010.1
20260905022825 16 0 0.0 1.6 0.03 1.80 1.07 90 1010.2
20260905022325 16 170 0.0 1.6 0.03 1.80 1.07 90 1010.2
20260905021825 16 0 0.0 0.0 0.03 1.80 1.07 90 1010.1
20260905021326 16 0 0.0 0.0 0.03 1.80 1.07 90 1010.1
20260905020825 16 0 0.0 0.0 0.00 1.80 1.07 90 1010.1
20260905020325 16 0 0.0 0.0 0.00 1.80 1.07 90 1010.1
20260905015825 16 0 0.0 0.0 0.00 1.80 1.04 90 1010.1
20260905015325 16 0 0.0 0.0 0.00 1.80 1.04 90 1010.1
20260905014825 16 0 0.0 0.0 0.00 1.80 1.04 90 1010.0
20260905014420 16 0 0.0 0.0 0.00 1.80 1.04 90 1009.9
20260905014326 16 0 0.0 0.0 0.00 1.80 1.04 90 1009.9
20260905013825 16 0 0.0 0.0 0.00 1.80 1.04 90 1009.9
20260905013325 16 0 0.0 0.0 0.00 1.80 1.04 90 1010.0
20260905012825 16 0 0.0 0.0 0.00 1.80 1.04 90 1009.9
20260905012325 16 0 0.0 0.0 0.00 1.80 1.04 90 1009.8
20260905011825 16 0 0.0 3.2 0.00 1.80 1.04 90 1009.8
20260905011326 16 292 0.0 3.2 0.00 1.80 1.04 90 1009.8
20260905010825 16 16 0.0 3.2 0.00 1.80 1.04 90 1009.7
20260905005825 16 0 0.0 0.0 0.00 1.83 1.04 90 1009.7
20260905005325 16 0 0.0 0.0 0.00 1.83 1.04 90 1009.7
20260905004825 15 0 0.0 0.0 0.00 1.83 1.04 90 1009.7
20260905004326 15 0 0.0 0.0 0.00 1.83 1.04 90 1009.6
20260905003825 15 0 0.0 0.0 0.00 1.83 1.04 90 1009.6
20260905003325 16 0 0.0 0.0 0.00 1.83 1.04 90 1009.6
20260905002825 15 0 0.0 0.0 0.00 1.83 1.04 90 1009.6
20260905002325 16 9 0.0 0.0 0.00 1.83 1.04 90 1009.5
20260905001825 16 0 0.0 1.6 0.00 1.83 1.04 90 1009.5
20260905001326 16 354 0.0 1.6 0.00 1.83 1.04 90 1009.6
20260905000825 16 329 0.0 1.6 0.00 1.83 1.04 90 1009.5
20260905000325 16 330 0.0 4.8 0.00 1.83 1.04 90 1009.5
20260904235825 16 352 0.0 4.8 0.03 1.98 1.04 90 1009.5
20260904235325 16 329 1.6 4.8 0.03 1.98 1.04 90 1009.4
20260904234825 16 345 0.0 6.4 0.05 1.98 1.04 90 1009.4
20260904234326 16 19 1.6 6.4 0.05 1.98 1.04 90 1009.3
20260904233825 16 341 0.0 6.4 0.13 1.98 1.04 90 1009.3
20260904233325 16 316 1.6 4.8 0.13 1.98 1.04 90 1009.2
20260904232825 15 16 1.6 3.2 0.15 1.98 1.04 90 1009.3
20260904232325 15 355 0.0 3.2 0.15 1.98 1.04 90 1009.2
20260904231825 15 8 0.0 1.6 0.23 1.98 1.04 90 1009.2
20260904231326 15 50 0.0 0.0 0.23 1.98 1.04 90 1009.1
20260904230825 15 103 0.0 4.8 0.43 1.98 1.04 90 1009.1
20260904230325 15 324 0.0 4.8 0.43 1.98 1.04 90 1009.2
20260904225825 15 309 0.0 4.8 0.53 1.70 1.04 90 1009.1
20260904225325 15 348 0.0 9.7 0.53 1.70 1.04 89 1009.1
20260904224825 15 9 1.6 9.7 0.61 1.70 1.02 89 1009.1
20260904223825 15 32 3.2 6.4 0.69 1.70 0.97 89 1009.0
20260904223325 15 344 0.0 6.4 0.69 1.70 0.91 89 1009.0
20260904222825 15 0 1.6 4.8 0.76 1.70 0.91 89 1009.0
20260904222325 15 331 0.0 1.6 0.76 1.70 0.89 89 1008.9
20260904221825 15 0 0.0 0.0 0.74 1.70 0.89 89 1008.8
20260904221326 15 0 0.0 0.0 0.74 1.70 0.84 89 1008.8
20260904220326 16 0 0.0 4.8 0.56 1.70 0.71 88 1008.8
20260904215825 16 334 0.0 4.8 0.43 1.57 0.56 88 1008.7
20260904215325 16 2 0.0 4.8 0.43 1.57 0.51 88 1008.7
20260904214825 16 345 3.2 3.2 0.33 1.57 0.48 88 1008.6
20260904214326 16 0 0.0 3.2 0.33 1.57 0.41 88 1008.7
20260904213825 16 338 0.0 3.2 0.18 1.57 0.33 88 1008.6
20260904213325 16 18 1.6 1.6 0.18 1.57 0.25 88 1008.5
20260904212825 16 329 0.0 9.7 0.08 1.57 0.20 87 1008.5
20260904212325 16 316 1.6 9.7 0.08 1.57 0.15 87 1008.3
20260904211825 16 323 4.8 9.7 0.03 1.57 0.10 87 1008.2
20260904211326 16 295 4.8 12.9 0.03 1.57 0.08 87 1008.2
20260904210826 16 336 3.2 12.9 0.00 1.57 0.08 86 1008.2
20260904210325 16 334 6.4 12.9 0.00 1.57 0.08 86 1008.1
20260904205825 16 323 8.0 12.9 0.00 1.60 0.05 85 1008.1
20260904205325 16 337 8.0 11.3 0.00 1.60 0.05 85 1008.0
20260904204825 16 7 8.0 16.1 0.00 1.60 0.05 85 1008.0
20260904204326 17 331 9.7 16.1 0.00 1.60 0.05 85 1008.0
20260904203825 17 357 9.7 16.1 0.00 1.60 0.05 84 1007.9
20260904203325 17 320 11.3 17.7 0.00 1.60 0.05 84 1007.9
20260904202825 17 315 11.3 17.7 0.00 1.60 0.05 83 1007.9
20260904202325 18 306 8.0 17.7 0.00 1.60 0.05 84 1007.8
20260904201825 18 337 9.7 14.5 0.00 1.60 0.05 85 1007.8
20260904201326 18 310 8.0 14.5 0.00 1.60 0.05 84 1007.9
20260904200325 18 336 9.7 14.5 0.00 1.60 0.05 85 1007.9
20260904195825 18 327 6.4 11.3 0.00 1.65 0.05 85 1007.9
20260904195325 18 327 3.2 11.3 0.00 1.65 0.05 84 1007.9
20260904194825 18 287 6.4 11.3 0.00 1.65 0.05 84 1007.8
20260904194326 18 287 4.8 9.7 0.00 1.65 0.05 87 1007.8
20260904193825 17 322 3.2 3.2 0.00 1.65 0.05 88 1007.8
20260904193325 17 319 0.0 3.2 0.00 1.65 0.05 86 1007.8
20260904192825 17 256 1.6 3.2 0.00 1.65 0.05 86 1007.8
20260904192325 17 277 0.0 3.2 0.00 1.65 0.05 85 1007.7
20260904191825 17 282 1.6 11.3 0.00 1.65 0.05 85 1007.8
20260904191326 17 292 4.8 11.3 0.00 1.65 0.05 85 1007.8
20260904190825 17 175 4.8 11.3 0.00 1.65 0.05 85 1007.8
20260904190325 17 205 3.2 9.7 0.00 1.65 0.05 85 1007.8
20260904185825 18 155 3.2 6.4 0.00 1.75 0.05 86 1007.7
20260904185325 18 271 4.8 11.3 0.00 1.75 0.05 86 1007.6
20260904184825 18 281 1.6 11.3 0.00 1.75 0.05 85 1007.6
20260904184326 18 294 1.6 11.3 0.00 1.75 0.05 86 1007.6
20260904183825 18 165 3.2 11.3 0.00 1.75 0.05 85 1007.5
20260904183325 18 329 4.8 11.3 0.00 1.75 0.05 85 1007.5
20260904182825 18 303 3.2 11.3 0.00 1.75 0.05 85 1007.5
20260904182325 18 323 6.4 11.3 0.00 1.75 0.05 86 1007.4
20260904181825 18 198 3.2 11.3 0.00 1.75 0.05 87 1007.4
20260904181326 18 158 0.0 11.3 0.00 1.75 0.05 86 1007.4
20260904180825 18 103 3.2 4.8 0.00 1.75 0.05 88 1007.4
20260904180325 18 141 1.6 8.0 0.00 1.75 0.05 88 1007.4
20260904175825 17 186 1.6 8.0 0.00 1.91 0.05 89 1007.3
20260904175325 17 120 3.2 8.0 0.00 1.91 0.05 90 1007.3
20260904174825 17 336 0.0 6.4 0.00 1.91 0.05 91 1007.2
20260904174326 17 344 3.2 8.0 0.00 1.91 0.05 91 1007.2
20260904173825 17 218 1.6 8.0 0.00 1.91 0.05 92 1007.1
20260904173325 16 78 0.0 8.0 0.00 1.91 0.05 93 1007.1
20260904172825 16 239 0.0 6.4 0.00 1.91 0.05 92 1007.1
20260904172325 15 144 1.6 4.8 0.00 1.91 0.05 93 1007.1
20260904171825 15 124 1.6 4.8 0.00 1.91 0.05 92 1007.1
20260904171326 15 242 0.0 11.3 0.00 1.91 0.05 92 1007.0
20260904170825 15 113 1.6 11.3 0.00 1.91 0.05 92 1006.9
20260904170325 15 133 1.6 11.3 0.00 1.91 0.05 92 1006.8
20260904165826 15 106 1.6 9.7 0.00 2.13 0.05 92 1006.9
20260904165325 15 343 3.2 8.0 0.00 2.13 0.05 92 1006.8
20260904164825 15 40 3.2 6.4 0.00 2.13 0.05 92 1006.8
20260904164326 15 79 1.6 6.4 0.00 2.13 0.05 92 1006.7
20260904163825 15 306 3.2 4.8 0.00 2.13 0.05 92 1006.7
20260904163418 14 172 0.0 4.8 0.00 2.13 0.05 92 1006.7
20260904163325 14 172 0.0 4.8 0.00 2.13 0.05 92 1006.7
20260904162825 14 166 0.0 4.8 0.00 2.13 0.05 92 1006.7
20260904162325 14 246 3.2 3.2 0.00 2.13 0.05 92 1006.7
20260904161825 14 124 0.0 6.4 0.00 2.13 0.05 92 1006.8
20260904161326 14 291 3.2 6.4 0.00 2.13 0.05 92 1006.8
20260904160825 14 263 3.2 6.4 0.00 2.13 0.05 92 1006.7
20260904160325 13 289 1.6 6.4 0.00 2.13 0.05 92 1006.7
20260904155325 13 275 0.0 4.8 0.00 2.31 0.05 92 1006.7
20260904154825 13 253 0.0 6.4 0.00 2.31 0.05 92 1006.6
20260904154326 13 229 1.6 6.4 0.00 2.31 0.05 92 1006.6
20260904153825 13 285 1.6 6.4 0.00 2.31 0.05 92 1006.6
20260904153325 13 270 1.6 6.4 0.00 2.31 0.05 92 1006.6
20260904152825 13 240 0.0 6.4 0.00 2.31 0.05 92 1006.5
20260904152325 13 242 0.0 6.4 0.00 2.31 0.05 92 1006.4
20260904151825 13 148 1.6 6.4 0.00 2.31 0.05 92 1006.3
20260904151421 13 246 1.6 4.8 0.00 2.31 0.05 92 1006.3
20260904151326 13 246 1.6 4.8 0.00 2.31 0.05 92 1006.3
20260904150825 13 208 0.0 4.8 0.00 2.31 0.05 92 1006.2
20260904150325 13 186 0.0 8.0 0.00 2.31 0.05 92 1006.2
20260904145325 13 151 0.0 8.0 0.00 2.54 0.05 92 1006.0
20260904144918 13 277 1.6 8.0 0.00 2.54 0.05 92 1005.9
20260904144825 13 277 1.6 8.0 0.00 2.54 0.05 92 1005.9
20260904144326 13 268 0.0 6.4 0.00 2.54 0.05 92 1005.9
20260904143825 12 261 0.0 6.4 0.03 2.54 0.05 92 1005.8
20260904143325 13 236 1.6 4.8 0.03 2.54 0.05 92 1005.8
20260904142825 13 224 1.6 4.8 0.03 2.54 0.05 92 1005.7
20260904142325 12 294 0.0 3.2 0.03 2.54 0.05 92 1005.8
20260904141326 12 271 0.0 8.0 0.03 2.54 0.05 92 1005.6
20260904140825 12 98 3.2 8.0 0.03 2.54 0.05 92 1005.5
20260904140325 13 197 1.6 6.4 0.03 2.54 0.05 92 1005.4
20260904135825 12 236 0.0 6.4 0.03 2.74 0.05 92 1005.3
20260904134825 13 217 0.0 4.8 0.03 2.74 0.05 92 1005.2
20260904134326 12 264 1.6 8.0 0.03 2.74 0.05 92 1005.2
20260904133825 13 261 0.0 8.0 0.00 2.74 0.05 92 1005.1
20260904133325 12 102 3.2 8.0 0.00 2.74 0.03 92 1005.0
20260904132825 12 201 3.2 4.8 0.00 2.74 0.03 92 1005.1
20260904132325 12 198 0.0 6.4 0.00 2.74 0.03 92 1005.0
20260904131825 12 253 0.0 6.4 0.00 2.74 0.03 92 1005.0
20260904131326 12 253 0.0 6.4 0.00 2.74 0.03 92 1005.0
20260904130825 12 298 1.6 4.8 0.00 2.74 0.03 92 1004.9
20260904130325 12 282 0.0 6.4 0.00 2.74 0.03 92 1004.8
20260904125825 12 273 0.0 6.4 0.00 2.82 0.03 92 1004.9
20260904125325 12 249 0.0 6.4 0.00 2.82 0.03 92 1004.8
20260904124825 12 208 1.6 4.8 0.00 2.82 0.03 92 1004.7
20260904123825 12 100 0.0 6.4 0.00 2.82 0.03 92 1004.7
20260904123325 12 236 0.0 6.4 0.00 2.82 0.03 92 1004.6
20260904122825 12 147 0.0 6.4 0.00 2.82 0.03 92 1004.6
20260904122325 12 273 0.0 6.4 0.00 2.82 0.03 92 1004.6
20260904121825 12 215 0.0 6.4 0.00 2.82 0.03 92 1004.6
20260904121326 12 84 0.0 3.2 0.00 2.82 0.03 92 1004.7
20260904120825 12 225 0.0 6.4 0.00 2.82 0.03 92 1004.7
20260904120443 12 140 0.0 6.4 0.00 2.82 0.03 92 1004.6
20260904120325 12 140 0.0 6.4 0.00 2.82 0.03 92 1004.6
20260904115825 12 210 0.0 6.4 0.00 2.82 0.03 92 1004.6
20260904115325 12 105 1.6 4.8 0.00 2.82 0.03 92 1004.6
20260904114825 12 193 0.0 4.8 0.00 2.82 0.03 92 1004.6
20260904114326 12 218 1.6 4.8 0.00 2.82 0.03 92 1004.6
20260904113825 12 249 0.0 3.2 0.00 2.82 0.03 92 1004.5
20260904113325 12 190 0.0 3.2 0.00 2.82 0.03 92 1004.5
20260904112950 12 161 0.0 3.2 0.00 2.82 0.03 92 1004.5
20260904112825 12 161 0.0 3.2 0.00 2.82 0.03 92 1004.5
20260904112325 12 239 0.0 1.6 0.00 2.82 0.03 92 1004.5
20260904111825 12 243 0.0 1.6 0.00 2.82 0.03 92 1004.4
20260904111326 13 214 0.0 6.4 0.00 2.82 0.03 92 1004.3
20260904110825 13 149 0.0 6.4 0.00 2.82 0.03 92 1004.3
20260904110325 13 225 0.0 6.4 0.00 2.82 0.03 92 1004.2
20260904105825 13 280 0.0 6.4 0.00 3.15 0.03 92 1004.3
20260904104825 13 121 0.0 6.4 0.00 3.15 0.03 92 1004.3
20260904104326 13 242 0.0 9.7 0.00 3.15 0.03 92 1004.2
20260904103325 13 99 1.6 9.7 0.00 3.15 0.03 92 1004.2
20260904102825 13 86 1.6 8.0 0.00 3.15 0.03 92 1004.2
20260904102325 13 245 0.0 6.4 0.00 3.15 0.03 92 1004.2
20260904101825 13 225 1.6 6.4 0.00 3.15 0.03 92 1004.2
20260904101326 13 177 3.2 4.8 0.00 3.15 0.03 92 1004.2
20260904100825 13 186 1.6 8.0 0.00 3.15 0.03 92 1004.2
20260904100325 13 186 3.2 8.0 0.00 3.15 0.03 92 1004.2
20260904095825 13 200 1.6 8.0 0.00 3.35 0.03 92 1004.2
20260904095325 13 151 4.8 4.8 0.00 3.35 0.03 92 1004.2
20260904094825 13 175 0.0 4.8 0.00 3.35 0.03 92 1004.2
20260904094326 13 273 1.6 4.8 0.00 3.35 0.03 92 1004.2
20260904093825 13 281 0.0 4.8 0.00 3.35 0.03 92 1004.2
20260904093325 13 5 0.0 4.8 0.00 3.35 0.03 92 1004.2
20260904092825 13 264 0.0 3.2 0.00 3.35 0.03 92 1004.1
20260904092325 13 238 0.0 0.0 0.00 3.35 0.03 92 1004.1
20260904091825 13 53 0.0 4.8 0.00 3.35 0.03 92 1004.0
20260904091326 13 189 0.0 4.8 0.00 3.35 0.03 92 1003.9
20260904090825 13 238 0.0 4.8 0.00 3.35 0.03 92 1003.9
20260904090325 13 239 0.0 4.8 0.00 3.35 0.03 92 1003.9
20260904085825 13 239 0.0 4.8 0.00 3.35 0.03 92 1003.9
20260904085325 13 176 0.0 6.4 0.00 3.35 0.03 92 1003.9
20260904084825 13 215 1.6 6.4 0.00 3.35 0.03 92 1003.8
20260904084326 13 200 0.0 6.4 0.00 3.35 0.03 92 1003.8
20260904083825 13 231 3.2 8.0 0.03 3.35 0.03 92 1003.8
20260904083325 13 196 1.6 8.0 0.03 3.35 0.03 92 1003.8
20260904082825 13 204 0.0 8.0 0.03 3.35 0.03 92 1003.8
20260904082325 13 197 0.0 8.0 0.03 3.35 0.03 92 1003.8
20260904081825 13 298 0.0 8.0 0.03 3.35 0.03 92 1003.8
20260904081326 13 289 0.0 8.0 0.03 3.35 0.03 91 1003.8
20260904080825 13 299 4.8 4.8 0.03 3.35 0.03 91 1003.7
20260904080325 13 264 0.0 8.0 0.03 3.35 0.03 91 1003.7
20260904075825 13 240 0.0 8.0 0.03 3.33 0.03 91 1003.7
20260904075325 13 242 0.0 8.0 0.03 3.33 0.03 91 1003.7
20260904074825 13 154 1.6 8.0 0.03 3.33 0.03 91 1003.7
20260904074326 13 144 0.0 8.0 0.03 3.33 0.03 91 1003.8
20260904073825 13 268 1.6 4.8 0.00 3.33 0.03 91 1003.7
20260904073325 13 229 1.6 9.7 0.00 3.33 0.00 91 1003.7
20260904072825 13 233 1.6 9.7 0.00 3.33 0.00 91 1003.8
20260904072325 13 158 0.0 9.7 0.00 3.33 0.00 91 1003.7
20260904071825 13 275 1.6 6.4 0.00 3.33 0.00 91 1003.6
20260904071326 13 137 0.0 6.4 0.00 3.33 0.00 91 1003.7
20260904070825 13 194 1.6 6.4 0.00 3.33 0.00 91 1003.7
20260904070325 13 240 0.0 4.8 0.00 3.33 0.00 91 1003.6
20260904065826 13 266 0.0 6.4 0.00 3.33 0.00 91 1003.6
20260904065325 13 201 0.0 6.4 0.00 3.33 3.33 91 1003.6
20260904064825 13 182 0.0 6.4 0.00 3.33 3.33 91 1003.6
20260904064326 13 84 1.6 6.4 0.00 3.33 3.33 91 1003.7
20260904063825 13 231 0.0 6.4 0.00 3.33 3.33 91 1003.7
20260904063325 13 250 0.0 6.4 0.00 3.33 3.33 91 1003.7
20260904062825 13 190 0.0 6.4 0.00 3.33 3.33 91 1003.7
20260904062325 13 320 1.6 3.2 0.00 3.33 3.33 91 1003.8
20260904061825 13 221 1.6 3.2 0.00 3.33 3.33 91 1003.8
20260904061326 13 273 0.0 4.8 0.00 3.33 3.33 91 1003.8
20260904060825 13 289 0.0 4.8 0.00 3.33 3.33 91 1003.9
20260904060325 13 275 1.6 4.8 0.00 3.33 3.33 91 1004.0
20260904055825 13 257 0.0 3.2 0.00 3.33 3.33 91 1004.0
20260904055325 13 266 0.0 3.2 0.00 3.33 3.33 91 1004.1
20260904054825 13 301 0.0 3.2 0.18 3.33 3.33 91 1004.0
20260904054326 13 140 0.0 3.2 0.18 3.33 3.33 91 1004.1
20260904053918 13 215 0.0 4.8 0.33 3.33 3.33 91 1004.2
20260904053825 13 215 0.0 4.8 0.33 3.33 3.33 91 1004.2
20260904053325 13 257 1.6 4.8 0.33 3.33 3.33 91 1004.1
20260904052825 13 201 0.0 4.8 0.43 3.33 3.33 91 1004.1
20260904052326 13 82 1.6 8.0 0.43 3.33 3.33 91 1004.2
20260904051825 13 112 0.0 8.0 0.48 3.33 3.33 91 1004.2
20260904051326 13 198 1.6 8.0 0.48 3.33 3.33 91 1004.2
20260904050825 13 323 3.2 3.2 0.48 3.33 3.33 91 1004.3
20260904050325 13 333 0.0 3.2 0.48 3.33 3.33 91 1004.2
20260904045825 13 106 1.6 4.8 0.48 3.33 3.33 91 1004.3